Location: Newark
(34.9500°N, 139.9667°E)
Time: 18:08:03
(UTC+00:00)

Vanguard 1 Rocket - All Passes

Search period start: 08 December 2019 00:00
Search period end: 18 December 2019 00:00
Orbit: 650 x 4226 km, 34.3° (Epoch: 07 December)

Date Brightness Start Highest point End Pass type
(mag) Time Alt. Az. Time Alt. Az. Time Alt. Az.
08 Dec - 07:17:06 10° SSE 07:23:59 12° SE 07:30:08 10° ESE daylight
08 Dec - 09:35:15 10° SSW 09:54:20 36° SSE 10:05:54 10° E visible
08 Dec - 12:05:35 10° WSW 12:23:01 67° SSE 12:31:39 10° E visible
08 Dec - 14:38:23 10° W 14:49:49 87° S 14:55:46 10° E night (unlit)
08 Dec - 17:08:31 10° W 17:14:55 45° SSW 17:19:18 10° SE night (unlit)
09 Dec - 08:22:51 10° SSW 08:40:43 27° SE 08:53:09 10° E visible
09 Dec - 10:50:28 10° SW 11:10:21 56° SSE 11:20:48 10° E visible
09 Dec - 13:23:23 10° WSW 13:38:07 84° S 13:45:22 10° E visible
09 Dec - 15:55:18 10° W 16:04:07 70° SSW 16:09:13 10° ESE night (unlit)
09 Dec - 18:24:56 10° WSW 18:28:10 16° SW 18:30:59 10° S visible
10 Dec - 07:12:54 10° S 07:26:47 18° SE 07:38:04 10° ESE daylight
10 Dec - 09:36:02 10° SW 09:57:06 45° SSE 10:09:25 10° E visible
10 Dec - 12:07:48 10° WSW 12:25:55 76° SSE 12:34:48 10° E visible
10 Dec - 14:41:09 10° W 14:52:52 85° S 14:58:56 10° E visible
10 Dec - 17:11:35 10° W 17:17:46 34° SSW 17:22:01 10° SE night (unlit)
11 Dec - 08:22:51 10° SSW 08:43:23 35° SE 08:57:09 10° E visible
11 Dec - 10:52:12 10° SW 11:13:10 65° SSE 11:23:59 10° E visible
11 Dec - 13:26:01 10° W 13:41:08 87° S 13:48:31 10° E visible
11 Dec - 15:58:09 10° W 16:07:05 59° SSW 16:12:14 10° ESE night (unlit)
11 Dec - 18:30:00 10° SW 18:30:47 10° SW 18:31:33 10° SSW night (unlit)
12 Dec - 07:11:29 10° S 07:29:24 25° SE 07:43:18 10° E daylight
12 Dec - 09:37:15 10° SW 09:59:49 54° SSE 10:12:43 10° E visible
12 Dec - 12:10:10 10° WSW 12:28:50 82° S 12:37:57 10° E visible
12 Dec - 14:43:55 10° W 14:55:54 79° SSW 15:02:04 10° ESE visible
12 Dec - 17:14:48 10° W 17:20:28 26° SW 17:24:30 10° SSE night (unlit)
13 Dec - 06:03:36 10° SSE 06:15:20 15° SE 06:25:51 10° ESE daylight
13 Dec - 08:23:26 10° SSW 08:45:58 43° SSE 09:00:44 10° E visible
13 Dec - 10:54:12 10° WSW 11:15:58 73° SSE 11:27:07 10° E visible
13 Dec - 13:28:41 10° W 13:44:09 87° S 13:51:41 10° E visible
13 Dec - 16:01:01 10° W 16:09:56 48° SSW 16:15:07 10° SE night (unlit)
14 Dec - 07:11:11 10° SSW 07:31:52 32° SE 07:47:34 10° E daylight
14 Dec - 09:38:47 10° SW 10:02:28 62° SSE 10:15:53 10° E visible
14 Dec - 12:12:40 10° W 12:31:47 86° S 12:41:04 10° E visible
14 Dec - 14:46:39 10° W 14:58:52 72° SSW 15:05:09 10° ESE visible
14 Dec - 17:18:18 10° W 17:23:02 19° SW 17:26:37 10° S night (unlit)
15 Dec - 06:01:16 10° S 06:17:45 21° SE 06:32:08 10° E daylight
15 Dec - 08:24:28 10° SW 08:48:29 51° SSE 09:04:04 10° E visible
15 Dec - 10:56:24 10° WSW 11:18:46 80° SSE 11:30:13 10° E visible
15 Dec - 13:31:21 10° W 13:47:09 85° S 13:54:50 10° E visible
15 Dec - 16:03:56 10° W 16:12:39 38° SW 16:17:51 10° SSE night (unlit)
16 Dec - 04:57:53 10° SE 05:03:48 11° SE 05:09:36 10° ESE daylight
16 Dec - 07:11:35 10° SSW 07:34:13 39° SE 07:51:17 10° E daylight
16 Dec - 09:40:37 10° WSW 10:05:08 70° SSE 10:18:59 10° E visible
16 Dec - 12:15:14 10° W 12:34:44 88° S 12:44:13 10° E visible
16 Dec - 14:49:22 10° W 15:01:44 62° SSW 15:08:08 10° SE visible
16 Dec - 17:22:30 10° WSW 17:25:28 13° SW 17:27:58 10° SSW night (unlit)
17 Dec - 06:00:35 10° S 06:20:00 28° SE 06:36:52 10° E daylight
17 Dec - 08:25:52 10° SW 08:50:56 59° SSE 09:07:14 10° E visible
17 Dec - 10:58:46 10° WSW 11:21:36 84° S 11:33:19 10° E visible
17 Dec - 13:34:00 10° W 13:50:05 80° SSW 13:57:56 10° ESE visible
17 Dec - 16:06:59 10° W 16:15:13 30° SW 16:20:21 10° SSE night (unlit)
